Flag for Canada Weather past 2 weeks in Qikiqtarjuaq, Nunavut Territory, Canada

Now
0 °F

Sunny.


Feels Like: -21 °F
Forecast: -6 / 5 °F
Wind: 16 mph from Southwest

Location: Broughton Island Airport


UV Index: 0 (Low)

Visibility: 9 mi


Pressure: 29.75 "Hg

Humidity: 65%

Dew point: -9 °F

Location of QikiqtarjuaqLocation

Historic Weather in Qikiqtarjuaq

°F

Qikiqtarjuaq temperature yesterday

Maximum temperature yesterday: 9 °F (at 2:00 PM)
Minimum temperature yesterday: -18 °F (at 5:00 AM)
Average temperature yesterday: 0 °F

Past Weeks' High & Low Weather Summary

 TemperatureHumidityPressure
High9 °F (Apr 10, 1:00 PM)92% (Apr 13, 9:03 PM)30.25 "Hg (Apr 13, 9:03 PM)
Low-22 °F (Apr 5, 7:00 AM)59% (Apr 5, 1:00 PM)29.21 "Hg (Apr 10, 7:03 PM)
Average-4 °F75%29.80 "Hg
* Reported Apr 4 5:00 AM — Apr 19 5:00 AM, Qikiqtarjuaq, Weather by CustomWeather, © 2014

Note: Actual official high and low records may vary slightly from our data, if they occured in-between our weather recording intervals... More about our weather records

Advertising

Historic Weather Conditions — Data for Previous 24 hours

 ConditionsComfort  
Time TempWeatherWind HumidityBarometerVisibility
5:00 AM
Apr 19
1 °FClear.18 mph65%29.74 "HgN/A
4:46 AM0 °FFrigid.17 mph65%29.74 "Hg9 mi
3:00 AM-4 °FClear.9 mph84%29.74 "Hg9 mi
2:00 AM0 °FClear.2 mph78%29.74 "Hg9 mi
1:00 AM-2 °FClear.3 mph77%29.73 "Hg9 mi
12:00 AM1 °FClear.10 mph65%29.71 "Hg9 mi
11:00 PM
Apr 18
3 °FClear.8 mph66%29.69 "Hg9 mi
10:00 PM1 °FClear.17 mph65%29.66 "Hg9 mi
9:00 PM3 °FSunny.17 mph60%29.65 "Hg9 mi
8:00 PM3 °FSunny.20 mph66%29.65 "Hg9 mi
7:00 PM3 °FFrigid.17 mph66%29.65 "Hg9 mi
6:00 PM7 °FPassing clouds.12 mph61%29.66 "Hg9 mi
4:00 PM7 °FSunny.12 mph66%29.65 "Hg9 mi
3:00 PM9 °FSunny.5 mph61%29.65 "Hg9 mi
2:00 PM9 °FSunny.9 mph61%29.64 "Hg9 mi
1:00 PM7 °FSunny.12 mph66%29.63 "Hg9 mi
12:00 PM5 °FSunny.8 mph66%29.62 "Hg9 mi
11:00 AM1 °FSunny.9 mph65%29.61 "Hg9 mi
10:00 AM1 °FFrigid.6 mph60%29.61 "Hg9 mi
9:00 AM0 °FSunny.3 mph60%29.60 "Hg9 mi
8:00 AM-9 °FSunny.3 mph64%29.60 "Hg9 mi
7:00 AM-2 °FSunny.7 mph59%29.58 "Hg9 mi
6:00 AM-8 °FSunny.7 mph70%29.57 "Hg9 mi
Weather by CustomWeather, © 2014

See weather overview